Voltar ao catálogo

ONEWEB-0359

AtivoComunicaçõesPO
NORAD 49285·PAYLOAD·🇬🇧 United Kingdom

Lançado Oct 14, 2021 de Vostochny Cosmodrome

Loading…

Próximas Passagens (próximas 24 horas)

TLE

AtualizadoSource: CelesTrak SupGP

Época: Sep 14, 2026, 17:29 UTC

1 49285C 21090G   26257.72866157 -.00001430  00000+0 -35224-2 0  2578
2 49285  87.9139 256.5728 0002017  96.1957 295.6717 13.20769878    18

Acompanhe ONEWEB-0359 em tempo real com AllMySat

Download on the App Store